Location: Elk Horn Observatory
(36.6768°N, 80.8309°W)
Time: 19:44:55
(UTC-04:00)

Envisat - Visible Passes

Search period start: 26 May 2019 00:00
Search period end: 05 June 2019 00:00
Orbit: 764 x 766 km, 98.2° (Epoch: 26 May)

Date Brightness Start Highest point End Pass type
(mag) Time Alt. Az. Time Alt. Az. Time Alt. Az.
26 May 5.7 21:07:09 10° SW 21:10:25 17° W 21:13:42 10° NW visible
29 May 5.5 20:55:13 10° SW 20:59:05 22° W 21:03:00 10° NW visible
31 May 6.0 21:23:06 10° WSW 21:24:52 12° W 21:26:37 10° WNW visible
03 Jun 5.7 21:10:34 10° SW 21:13:31 15° W 21:16:29 10° NW visible
